{"data":{"norad_id":64006,"epoch":"2026-09-20T12:05:16.910880Z","epoch_age_seconds":143223,"freshness":"FRESH","line1":"1 64006U 25101N   26263.50366795  .00011006  00000+0  40844-3 0  9995","line2":"2 64006  42.9992 337.3971 0000739 168.8395 191.2474 15.27615119 76879","mean_motion":15.27615119,"eccentricity":7.39e-5,"inclination_deg":42.9992,"raan_deg":337.3971,"arg_perigee_deg":168.8395,"mean_anomaly_deg":191.2474,"bstar":0.00040844,"rev_number":7687,"period_min":94.264581574883,"perigee_km":482.43690525288,"apogee_km":483.45097301569,"semimajor_km":6861.0809391343,"source":"CELESTRAK","updated_at":"2026-09-21T09:00:35.182169Z"}}